[TLELIST] Archives

 

[list_settings.list_name] Current TLEs

October 15th 2008 PST

HST 1 20580U 90037B 08287.34684823 .00000342 00000-0 13575-4 0 2400 2 20580 028.4703 272.5370 0003887 196.0141 164.0326 15.00415582812740 ISS (ZARYA) 1 25544U 98067A 08287.38421296 .00010144 00000-0 79805-4 0 4336 2 25544 051.6425 130.3637 0003502 210.0351 153.9842 15.72185237567135 CXO 1 25867U 99040B 08286.58333333 +.00000548 +00000-0 +10000-3 0 02528 2 25867 064.3220 077.2308 7048682 277.6918 000.3617 00.37809055004074 ____________________________________________________________________ These 2-Line ...Continue Reading

[list_settings.list_name] Current TLEs

October 14th 2008 PST

HST 1 20580U 90037B 08285.41784545 +.00000318 +00000-0 +11716-4 0 02495 2 20580 028.4704 285.1185 0003900 176.8859 183.1756 15.00414842812458 ISS (ZARYA) 1 25544U 98067A 08287.14681832 .00010077 00000-0 79324-4 0 4313 2 25544 051.6418 131.5796 0003485 209.1417 250.3515 15.72179722567094 CXO 1 25867U 99040B 08286.58333333 +.00000548 +00000-0 +10000-3 0 02528 2 25867 064.3220 077.2308 7048682 277.6918 000.3617 00.37809055004074 ____________________________________________________________________ These 2-Line ...Continue Reading

[list_settings.list_name] Current TLEs

October 13th 2008 PST

HST 1 20580U 90037B 08284.42008480 .00000321 00000-0 11948-4 0 2381 2 20580 028.4705 291.6257 0003908 167.2082 192.8607 15.00414568812302 ISS (ZARYA) 1 25544U 98067A 08285.82554398 .00008105 00000-0 64805-4 0 4230 2 25544 051.6423 138.3457 0004000 205.6527 330.6472 15.72144142566884 CXO 1 25867U 99040B 08283.91666667 +.00000451 +00000-0 +10000-3 0 02513 2 25867 064.3079 077.2989 7044061 277.6938 357.3967 00.37806478004068 ____________________________________________________________________ These 2-Line ...Continue Reading

[list_settings.list_name] Current TLEs

October 12th 2008 PST

HST 1 20580U 90037B 08284.42008480 .00000321 00000-0 11948-4 0 2381 2 20580 028.4705 291.6257 0003908 167.2082 192.8607 15.00414568812302 ISS (ZARYA) 1 25544U 98067A 08285.17618175 .00008229 00000-0 65758-4 0 4181 2 25544 051.6429 141.6711 0003965 203.2272 255.4044 15.72133311566784 CXO 1 25867U 99040B 08283.91666667 +.00000451 +00000-0 +10000-3 0 02513 2 25867 064.3079 077.2989 7044061 277.6938 357.3967 00.37806478004068 ____________________________________________________________________ These 2-Line ...Continue Reading

[list_settings.list_name] Current TLEs

October 11th 2008 PST

HST 1 20580U 90037B 08282.49108030 +.00000328 +00000-0 +12533-4 0 02511 2 20580 028.4705 304.2060 0003909 147.6594 212.4235 15.00414011812013 ISS (ZARYA) 1 25544U 98067A 08284.15812696 .00009187 00000-0 72915-4 0 4134 2 25544 051.6426 146.8825 0003949 197.8850 255.0457 15.72118914566625 CXO 1 25867U 99040B 08283.91666667 +.00000451 +00000-0 +10000-3 0 02513 2 25867 064.3079 077.2989 7044061 277.6938 357.3967 00.37806478004068 ____________________________________________________________________ These 2-Line ...Continue Reading

[list_settings.list_name] Current TLEs

October 10th 2008 PST

HST 1 20580U 90037B 08283.22277178 .00000324 00000-0 12234-4 0 2371 2 20580 028.4705 299.4343 0003912 155.2088 204.8689 15.00414213812123 ISS (ZARYA) 1 25544U 98067A 08281.87198288 +.00010391 +00000-0 +82001-4 0 04017 2 25544 051.6418 158.5911 0004100 189.8422 275.8399 15.72076783566260 CXO 1 25867U 99040B 08281.29166667 +.00000325 +00000-0 +10000-3 0 02506 2 25867 064.2958 077.3626 7039458 277.7048 000.0639 00.37805956004056 ____________________________________________________________________ These 2-Line ...Continue Reading

[list_settings.list_name] Current TLEs

October 9th 2008 PST

HST 1 20580U 90037B 08281.49331903 .00000337 00000-0 13215-4 0 2368 2 20580 028.4702 310.7149 0003904 138.4244 221.6643 15.00413725811863 ISS (ZARYA) 1 25544U 98067A 08280.84339287 +.00011191 +00000-0 +88027-4 0 03965 2 25544 051.6412 163.8597 0004046 185.4817 215.0447 15.72056224566103 CXO 1 25867U 99040B 08281.29166667 +.00000325 +00000-0 +10000-3 0 02506 2 25867 064.2958 077.3626 7039458 277.7048 000.0639 00.37805956004056 ____________________________________________________________________ These 2-Line ...Continue Reading

[list_settings.list_name] Current TLEs

October 8th 2008 PST

HST 1 20580U 90037B 08279.56431277 +.00000327 +00000-0 +12430-4 0 02488 2 20580 028.4701 323.2946 0003867 117.9657 242.1325 15.00412994811574 ISS (ZARYA) 1 25544U 98067A 08280.45236111 .00013667 00000-0 10647-3 0 3944 2 25544 051.6408 165.8623 0004156 185.9912 160.0534 15.72052124566036 CXO 1 25867U 99040B 08281.29166667 +.00000325 +00000-0 +10000-3 0 02506 2 25867 064.2958 077.3626 7039458 277.7048 000.0639 00.37805956004056 ____________________________________________________________________ These 2-Line ...Continue Reading

[list_settings.list_name] Current TLEs

October 7th 2008 PST

HST 1 20580U 90037B 08280.22948746 .00000330 00000-0 12667-4 0 2359 2 20580 028.4701 318.9573 0003862 125.3505 234.7443 15.00413240811675 ISS (ZARYA) 1 25544U 98067A 08279.50236111 .00033985 00000-0 25738-3 0 3872 2 25544 051.6414 170.7266 0004018 179.2775 186.7924 15.72046613565898 CXO 1 25867U 99040B 08278.62500000 +.00000225 +00000-0 +10000-3 0 02499 2 25867 064.2855 077.4307 7033794 277.7252 357.0383 00.37805708004048 ____________________________________________________________________ These 2-Line ...Continue Reading

[list_settings.list_name] Current TLEs

October 6th 2008 PST

HST 1 20580U 90037B 08278.56655018 .00000320 00000-0 11928-4 0 2347 2 20580 028.4700 329.8021 0003809 107.4774 252.6231 15.00412614811424 ISS (ZARYA) 1 25544U 98067A 08278.31140205 .00013725 00000-0 10518-3 0 3801 2 25544 051.6417 176.8192 0006277 177.2604 284.1627 15.72432189565704 CXO 1 25867U 99040B 08278.62500000 +.00000225 +00000-0 +10000-3 0 02499 2 25867 064.2855 077.4307 7033794 277.7252 357.0383 00.37805708004048 ____________________________________________________________________ These 2-Line ...Continue Reading
  • This mailing list is a public mailing list - anyone may join or leave, at any time.
  • This mailing list is announce-only.

International Space Station (ISS) / Hubble Space Telescope (HST) / Chandra X-Ray Observatory Orbital Data via EMAIL

Privacy Policy:

Private list